Location: Yellowknife
(62.4500°N, 114.3500°W)
Time: 00:28:41
(UTC-06:00)

ISS - Visible Passes

Search period start: 20 September 2024 00:00
Search period end: 30 September 2024 00:00
Orbit: 413 x 423 km, 51.6° (Epoch: 20 September)

Date Brightness Start Highest point End Pass type
(mag) Time Alt. Az. Time Alt. Az. Time Alt. Az.
20 Sep -1.4 20:29:23 10° SSW 20:31:06 13° S 20:32:48 10° SE visible
20 Sep -1.3 22:05:39 10° SW 22:06:46 12° SSW 22:06:46 12° SSW visible
21 Sep -1.4 21:17:43 10° SW 21:19:16 13° S 21:20:39 11° SSE visible
22 Sep -1.3 20:29:54 10° SW 20:31:37 13° S 20:33:20 10° SSE visible
23 Sep -1.1 21:19:17 10° SSW 21:19:39 10° SSW 21:20:00 10° SSW visible
24 Sep -1.2 20:30:41 10° SW 20:31:55 12° SSW 20:33:08 10° S visible
